Retour au catalogue

STARLINK-4794

ActifCommunicationsVLEO
NORAD 53853·PAYLOAD·🇺🇸 United States

Lancé Sep 19, 2022 depuis Cape Canaveral Space Force Station

Loading…

Prochains Passages (prochaines 24 heures)

TLE

FraisSource: CelesTrak SupGP

Époque: Sep 14, 2026, 21:59 UTC

1 53853C 22114AM  26257.91645833 -.00038166  00000+0 -23937-2 0  2573
2 53853  53.1580 163.7165 0001566  92.0026 235.1806 15.08849571    18

Suivez STARLINK-4794 en temps réel avec AllMySat

Download on the App Store